www.pogodaiklimat.ru

Погода и климат >> Архив погоды >> Мексика >> Coatzacoalcos


ПОГОДА в Coatzacoalcos

  • Прогноз погоды в Coatzacoalcos
  • Монитор погоды в Coatzacoalcos
  • Климат города

АРХИВ ПОГОДЫ в Coatzacoalcos

Время (UTC), дата Ветер
(напр.,м/с)
 
Видим.   Явления Облачность Т
(С)
Тd
(С)
f
(%)
Тe
(С)
Тes
(С)
Комфортность P
(гПа)
Po
(гПа)
Тmin
(С)
Tmax
(С)
R
(мм)
R24
(мм)
S
(см)
03 18.06 СВ 3 4000 м мгла {туман} 8/5 400 м
[Cu med, cong Ac und]
+28.8 +24.5 78 +41 +41 опасность
перегрева
1010.5 1008.7
06 18.06 СВ 2 4000 м мгла {туман} 8/5 360 м
[Cu med, cong Ac und]
+27.4 +24.1 82 +38 +38 очень
душно
1010.8 1009.0 +25.1 +33.2
15 18.06 Ю 5 20 км мгла {туман} 6/4 500 м
[Cu med, cong Ac trans]
+28.2 +23.4 75 +38 +41 очень
душно
1010.4 1008.5
18 18.06 Ю 7 20 км мгла {туман} 6/4 500 м
[Cu med, cong Ac trans]
+32.4 +23.7 60 +44 +47 опасность
перегрева
1009.5 1007.7 +23.4 +33.1
21 18.06 Ю 5 10 км пыльный позёмок {метель} 8/5 420 м
[Cu med, cong Ac und]
+35.0 +23.3 51 +46 +48 опасность
перегрева
1008.5 1006.7
00 19.06 Ю 3 10 км мгла {метель} 6/5 300 м
[Cu med, cong Ac und]
+32.2 +24.1 62 +44 +44 опасность
перегрева
1007.3 1005.5 +23.4 +35.6
03 19.06 СВ 2 6000 м мгла {туман} 8/5 360 м
[Cu med, cong Ac trans]
+29.0 +27.2 90 +46 +46 опасность
перегрева
1009.5 1007.7
06 19.06 СВ 2 4000 м мгла {туман} 8/5 360 м
[Cu med, cong Ac trans]
+28.6 +27.0 91 +45 +45 опасность
перегрева
1010.4 1008.6 +23.4 +35.6
09 19.06 ЮЗ 3 4000 м мгла {туман} 5/4 300 м
[Cu med, cong As op]
+26.8 +23.5 82 +36 +36 очень
душно
1008.4 1006.6
12 19.06 ЮЗ 3 5000 м мгла {туман} 5/3 300 м
[Cu med, cong As op]
+25.9 +23.6 87 +35 +35 очень
душно
1008.7 1006.9 +24.0 +35.6
15 19.06 Ю 3 25 км мгла {туман} 5/3 500 м
[Cu med, cong Ac trans]
+29.4 +25.4 79 +43 +48 опасность
перегрева
1008.8 1006.9
18 19.06 Ю 6 25 км мгла {туман} 5/3 500 м
[Cu med, cong Ac trans]
+35.4 +26.0 58 +51 +56 опасность
перегрева
1008.0 1006.2 +24.0 +37.0
21 19.06 Ю 4 12 км 6/5 540 м
[Cu med, cong Ci]
+37.4 +24.6 48 +50 +54 опасность
перегрева
1006.4 1004.6
00 20.06 СВ 6 12 км мгла {туман} 4/4 300 м
[Cu med, cong]
+34.2 +25.4 60 +48 +49 опасность
перегрева
1005.4 1003.6 +24.0 +38.6
03 20.06 З 2 4000 м мгла {туман} 4/4 400 м
[Cu med, cong]
+31.8 +25.1 68 +46 +46 опасность
перегрева
1007.8 1006.1
06 20.06 З 2 4000 м мгла {туман} 4/4 400 м
[Cu med, cong]
+29.2 +22.2 66 +38 +38 очень
душно
1008.4 1006.6 +24.0 +38.6
09 20.06 Ю 3 4000 м мгла {туман} 1/1 270 м
[Cu med, cong]
+26.9 +23.2 80 +36 +36 очень
душно
1007.2 1005.4
12 20.06 ЮВ 1 5000 м мгла {туман} 5/3 270 м
[Cu med, cong As op]
+26.2 +23.4 85 +36 +36 очень
душно
1007.1 1005.3 +24.5 +38.6
15 20.06 ЮВ 2 9000 м мгла {туман} 3/3 420 м
[Cu med, cong]
+30.8 +24.0 67 +42 +50 опасность
перегрева
1007.9 1006.1
18 20.06 ЮВ 4 15 км мгла {туман} 4/4 450 м
[Cu med, cong]
+32.5 +23.7 60 +44 +53 опасность
перегрева
1009.3 1007.5 +24.5 +39.0
21 20.06 Ю 6 10 км мгла {туман} 5/1 840 м
[Cu hum Ci fib]
+37.4 +30.6 68 +66 +70 опасность
перегрева
1005.4 1003.7
00 21.06 ЮЗ 5 8000 м мгла 4/0
[Ci fib]
+34.6 +23.8 54 +46 +47 опасность
перегрева
1005.1 1003.3 +24.5 +39.0
03 21.06 ЮВ 2 4000 м мгла {туман} 4/4 400 м
[Cu med, cong]
+31.4 +22.9 61 +42 +42 опасность
перегрева
1006.7 1005.0
06 21.06 ЮВ 3 4000 м мгла {туман} 4/4 420 м
[Cu med, cong]
+28.8 +23.3 72 +39 +39 очень
душно
1009.2 1007.4 +24.5 +39.0
09 21.06 Ю 3 4000 м мгла {туман} 1/1 300 м
[Cu med, cong]
+27.6 +22.5 74 +36 +36 очень
душно
1007.3 1005.5
12 21.06 ЮЗ 4 5000 м мгла {туман} 5/3 300 м
[Cu med, cong]
+26.2 +22.3 79 +34 +34 очень
душно
1007.1 1005.2 +24.1 +39.0
15 21.06 ЮЗ 4 8000 м мгла {туман} 3/3 420 м
[Cu med, cong]
+30.6 +24.1 68 +42 +47 опасность
перегрева
1009.0 1007.1
18 21.06 ЮЗ 5 15 км 5/4 450 м
[Cu med, cong Ci]
+35.8 +23.9 50 +47 +54 опасность
перегрева
1008.0 1006.2 +24.1 +37.8
21 21.06 ЮЗ 5 14 км 4/4 450 м
[Cu med, cong]
+37.4 +22.7 43 +47 +51 опасность
перегрева
1006.0 1004.2
00 22.06 СВ 5 10 км мгла {туман} 4/4 300 м
[Cu med, cong]
+32.2 +26.7 73 +50 +50 опасность
перегрева
1005.7 1003.9 +24.1 +39.2
03 22.06 ЮЗ 2 4000 м зарница {гроза, туман} 5/4
[Cu med, cong As op]
+30.3 +23.5 67 +41 +41 опасность
перегрева
1009.6 1007.8
06 22.06 ЮЗ 3 4000 м слабая морось {гроза} 4/4 200 м
[Cu med, cong]
+27.6 +23.3 77 +37 +37 очень
душно
1009.6 1007.8 0.0
09 22.06 ЮЗ 3 5000 м мгла {туман} 1/1 450 м
[Cu hum]
+27.2 +23.6 81 +37 +37 очень
душно
1008.8 1007.0
12 22.06 Ю 3 5000 м мгла {туман} 1/0
[Cs]
+24.8 +23.4 92 +33 +33 очень
душно
1010.1 1008.2 +24.2 +39.2
15 22.06 Ю 2 9000 м мгла {туман} 3/3 400 м
[Cu med, cong]
+29.6 +24.3 73 +41 +49 опасность
перегрева
1010.9 1009.1
18 22.06 Ю 2 13 км мгла {туман} 4/4 450 м
[Cu med, cong]
+35.2 +24.5 54 +48 +61 опасность
перегрева
1010.2 1008.4 +24.2 +36.2
21 22.06 С 4 5000 м мгла {туман} 5/4 240 м
[Cb calv As op]
+33.8 +26.0 64 +50 +54 опасность
перегрева
1008.2 1006.4
00 23.06 С 4 6000 м мгла {туман} 4/3 200 м
[Cb calv As op]
+31.2 +26.2 75 +47 +47 опасность
перегрева
1007.2 1005.4 +24.2 +37.6
03 23.06 СВ 5 6000 м мгла {туман} 6/5 360 м
[Cu med, cong Ac trans]
+29.0 +26.3 85 +44 +44 опасность
перегрева
1010.2 1008.4
06 23.06 СВ 6 4000 м в посл. час гроза 10/8 300 м
[Sc diur, vesp Ac und]
+27.6 +27.0 97 +43 +43 опасность
перегрева
1011.1 1009.3 +24.2 +37.6
09 23.06 ЮЗ 4 4000 м мгла {морось, туман} 8/5 300 м
[Sc As op]
+23.4 +22.8 96 +33 +33 очень
душно
1010.5 1008.7 3
12 23.06 ЮЗ 6 5000 м мгла {туман} 6/4 200 м
[Cu med, cong As op]
+24.2 +22.5 90 +32 +32 очень
душно
1009.7 1007.9 3
15 23.06 Ю 1 5000 м мгла {туман} 5/5 420 м
[Cu med, cong]
+28.5 +24.7 80 +41 +47 опасность
перегрева
1011.2 1009.4
18 23.06 С 5 12 км мгла {туман} 5/4 240 м
[Cu med, cong As op]
+30.4 +26.0 77 +45 +51 опасность
перегрева
1010.5 1008.6 +21.9 +32.2
21 23.06 С 9 15 км мгла {туман} 4/3 500 м
[Cu med, cong Ac trans]
+32.0 +26.7 74 +49 +50 опасность
перегрева
1009.2 1007.4
00 24.06 С 6 15 км мгла {туман} 4/3 300 м
[Cu med, cong Ac trans]
+30.0 +25.7 78 +45 +45 опасность
перегрева
1007.8 1006.0 +21.9 +34.0
03 24.06 СВ 3 5000 м мгла {туман} 4/3 300 м
[Cu med, cong As op]
+28.2 +25.2 84 +41 +41 опасность
перегрева
1009.5 1007.7
06 24.06 В 3 5000 м мгла {туман} 5/4 300 м
[Cu med, cong As op]
+28.4 +25.2 83 +41 +41 опасность
перегрева
1010.6 1008.8 +21.9 +32.2
09 24.06 Ю 1 4000 м гроза без осадков {туман} 6/6 240 м
[Cb calv]
+27.3 +25.1 88 +39 +39 очень
душно
1009.5 1007.6
12 24.06 ЮВ 1 4000 м мгла {гроза, туман} 6/3 240 м
[Cu med, cong As op]
+26.1 +25.2 95 +38 +38 очень
душно
1008.5 1006.6 +25.1 +34.0
15 24.06 Ю 4 4000 м мгла {туман} 4/3 500 м
[Cu med, cong Ac trans]
+28.8 +25.6 83 +43 +47 опасность
перегрева
1009.2 1007.3
18 24.06 Ю 5 15 км мгла {туман} 4/3 500 м
[Cu med, cong Ac trans]
+34.2 +26.2 63 +50 +58 опасность
перегрева
1008.8 1007.0 +25.1 +37.0
21 24.06 СВ 8 15 км мгла {туман} 4/1 500 м
[Cu hum Ac trans Ci fib]
+32.2 +27.0 74 +50 +52 опасность
перегрева
1007.6 1005.8

 

Местоположение метеостанции Coatzacoalcos (Мексика): широта 18.13 долгота -94.41 высота над уровнем моря 22 м.

В архиве по умолчанию представлена погода в Coatzacoalcos за последнюю неделю. Архивные данные за месяц целиком и за предыдущие месяцы, начиная с января 2011 года, Вы можете получить, выбрав интересующий диапазон дат из раскрывающегося списка и нажав кнопку "Ввод!".


*Определитесь, кто Вы:
робот инопланетянин человек

Внимание! Время в таблицах - всемирное. Для получения местного времени необходимо прибавить поправку, которая в Coatzacoalcos равна -6 ч.

Смотрите также архив погоды в соседних городах и на ближайших метеорологических станциях:

Погода в Villahermosa (Мексика) (157 км)
Погода в Tuxtla Gutierrez (Мексика) (205 км)
Погода в Verakruz (Мексика) (212 км)
Погода в Arriaga (Мексика) (218 км)
Погода в Salina Cruz (Мексика) (233 км)
Погода в Sn. Cristobal Las Casas (Мексика) (243 км)
Погода в Oaxaca (Мексика) (272 км)
Погода в Cordoba-In-Veracruz (Мексика) (279 км)
Погода в Orizaba (Мексика) (295 км)
Погода в Jalapa (Мексика) (307 км)

Пояснения к столбцам:

Ветер - указаны скорость ветра в м/с - средняя за 10 мин, порывы в срок и между сроками (в фигурных скобках) и направление, откуда дует ветер: С - северный, СВ - северо-восточный, В - восточный, ЮВ - юго-восточный, Ю - южный, ЮЗ - юго-западный, З - западный, СЗ - северо-западный.
Видимость - горизонтальная дальность видимости в метрах или километрах. При видимости от 1 до 10 км при отсутствии осадков обычно наблюдается дымка, при ухудшении видимости до 1 км и менее - туман. В сухую погоду видимость может ухудшаться дымом, пылью или мглою.
Явления - указаны атмосферные явления, наблюдавшиеся в срок или в последний час перед сроком; фигурными скобками обозначены явления, наблюдавшиеся между сроками (за 1-3 часа до срока); квадратными скобками обозначены град или гололедные отложения с указанием их диаметра в мм.
Облачность - указаны через наклонную черту общая и нижняя облачность в баллах и высота нижней границы облаков в метрах; квадратными скобками обозначены формы облаков: Ci - перистые, Cs - перисто-слоистые, Cc - перисто-кучевые, Ac - высококучевые, As - высокослоистые, Sc - слоисто-кучевые, Ns - слоисто-дождевые, Cu - кучевые, Cb - кучево-дождевые. Подробнее классификацию облаков см. в Атласе облаков (PDF).
T - Температура воздуха - температура, измеренная на высоте 2 м над землей.
Td - Температура точки росы - температура, при понижении до которой содержащийся в воздухе водяной пар достигнет насыщения.
f - Относительная влажность воздуха - влажноcть воздуха, измеренная на высоте 2 м над землей.
Te - Эффективная температура - температура, которую ощущает одетый по сезону человек в тени. Характеристика душности погоды. При расчете учитывается влияние влажности воздуха и скорости ветра на теплоощущения человека.
Tes - Эффективная температура на солнце - температура, которую ощущает человек, с поправкой на солнечный нагрев. Характеристика знойности погоды. Зависит от высоты солнца над горизонтом, облачности и скорости ветра. Ночью, в пасмурную погоду, а также при ветре 12 м/с и более поправка равна нулю.
P - Атмосферное давление - приведенное к уровню моря атмосферное давление.
Po - Атмосферное давление - измеренное на уровне метеостанции атмосферное давление.
Tmin - Минимальная температура - минимум температуры воздуха на высоте 2 м над землей.
Tmax - Максимальная температура - максимум температуры воздуха на высоте 2 м над землей.
R - Количество осадков - Количество выпавших осадков за период времени, мм. При наведении курсора мыши на число - период времени, за который выпало указанное количество осадков.
R24 - Количество осадков - Количество выпавших осадков за 24 часа, мм.
S - Снежный покров - Высота снежного покрова, см. При наведении курсора мыши на число - состояние снежного покрова и степень покрытия местности в баллах.